Weather History for GMFF - November, 2013

Change the Weather History Date:

Friday, November 1, 2013

  Actual Average Record
Temperature  
Mean Temperature 56 °F -  
Max Temperature 76 °F 65 °F 82 °F (1996)
Min Temperature 37 °F 45 °F 32 °F (2006)
Degree Days  
Heating Degree Days 8    
Growing Degree Days 6 (Base 50)    
Moisture  
Dew Point 32 °F    
Average Humidity 40    
Maximum Humidity 75    
Minimum Humidity 11    
Precipitation  
Precipitation 0.00 in 0.12 in - ()
Sea Level Pressure  
Sea Level Pressure 30.18 in    
Wind  
Wind Speed 5 mph ()    
Max Wind Speed 9 mph    
Max Gust Speed 22 mph    
Visibility 5.9 miles    
Events      
Averages and records for this station are not official NWS values.
T = Trace of Precipitation, MM = Missing Value Source: Averaged Metar Reports

Daily Weather History Graph

Daily Weather History Graph

Search for Another Location

Airport or City:

Trip Planner

Search our weather history database for the weather conditions in past years. The results will help you decide how hot, cold, wet, or windy it might be!

Date:

Astronomy

Nov. 01, 2013 Rise Set
Actual Time 6:39 AM WET 5:27 PM WET
Civil Twilight 6:13 AM WET 5:52 PM WET
Nautical Twilight 5:43 AM WET 6:22 PM WET
Astronomical Twilight 5:14 AM WET 6:51 PM WET
Moon 4:22 AM WET (11/1) 4:07 PM WET (11/1)
Length of Visible Light 11h 39m
Length of Day
10h 47m
Waning Crescent, 5% of the Moon is Illuminated
Nov 1
Waning Crescent
Nov 3
New
Nov 10
First Quarter
Nov 17
Full
Nov 25
Last Quarter

Hourly Weather History & Observations

Time (WET) Temp. Windchill Dew Point Humidity Pressure Visibility Wind Dir Wind Speed Gust Speed Precip Events Conditions
12:00 AM 47 °F - 31 °F 41% 30.22 in 6 mi South 4.6 mph - -  
12:00 AM 46.4 °F 43.5 °F 30.2 °F 53% 30.18 in - Variable 5.8 mph - N/A   Clear
1:00 AM 48.2 °F - 33.8 °F 58% 30.18 in - ENE 2.3 mph - N/A   Clear
2:00 AM 50.0 °F - 33.8 °F 54% 30.18 in - SE 9.2 mph - N/A   Clear
3:00 AM 47 °F - 33 °F 48% 30.22 in 6 mi ESE 5.8 mph - -  
3:00 AM 46.4 °F 44.3 °F 33.8 °F 62% 30.18 in - ENE 4.6 mph - N/A   Clear
4:00 AM 44.6 °F 42.2 °F 32.0 °F 61% 30.18 in - SE 4.6 mph - N/A   Clear
5:00 AM 42.8 °F 41.1 °F 30.2 °F 61% 30.18 in - Variable 3.5 mph - N/A   Clear
6:00 AM - - - %  in 6 mi Calm Calm - -  
6:00 AM 37.4 °F - 30.2 °F 75% 30.18 in - SE 2.3 mph - N/A   Clear
7:00 AM 37.4 °F - 30.2 °F 75% 30.18 in - South 2.3 mph - N/A   Clear
8:00 AM 50.0 °F - 33.8 °F 54% 30.21 in - SSE 2.3 mph - N/A   Clear
9:00 AM 61 °F - 37 °F 29% 30.22 in 6 mi ENE 8.1 mph - -  
9:00 AM 60.8 °F - 37.4 °F 42% 30.21 in - ENE 8.1 mph - N/A   Clear
10:00 AM 64.4 °F - 37.4 °F 37% 30.21 in - NE 6.9 mph - N/A   Clear
11:00 AM 69.8 °F - 41.0 °F 35% 30.21 in - ENE 8.1 mph - N/A   Unknown
12:00 PM 70 °F - 38 °F 20% 30.14 in 6 mi ENE 8.1 mph - -  
12:00 PM 71.6 °F - 37.4 °F 29% 30.18 in 5.0 mi East 6.9 mph - N/A   Unknown
2:00 PM 75.2 °F - 33.8 °F 22% 30.15 in - ENE 4.6 mph - N/A   Clear
3:00 PM 76 °F - 32 °F 11% 30.07 in 6 mi NNE 4.6 mph - -  
3:00 PM 75.2 °F - 32.0 °F 21% 30.15 in - NNE 5.8 mph - N/A   Clear
4:00 PM 75.2 °F - 30.2 °F 19% 30.15 in - NE 4.6 mph - N/A   Clear
5:00 PM 71.6 °F - 32.0 °F 23% 30.15 in - NNE 3.5 mph - N/A   Clear
6:00 PM 64 °F - 32 °F 19% 30.14 in 6 mi East 4.6 mph - -  
6:00 PM 64.4 °F - 32.0 °F 30% 30.15 in - East 4.6 mph - N/A   Clear
7:00 PM 60.8 °F - 28.4 °F 29% 30.18 in - SE 9.2 mph 21.9 mph N/A   Clear
8:00 PM 53.6 °F - 26.6 °F 35% 30.18 in - SSE 8.1 mph - N/A   Clear
9:00 PM 53 °F - 29 °F 27% 30.20 in 6 mi South 8.1 mph - -  
9:00 PM 53.6 °F - 28.4 °F 38% 30.18 in - Variable 8.1 mph - N/A   Clear
10:00 PM 50.0 °F - 28.4 °F 43% 30.18 in - Variable 3.5 mph - N/A   Clear
11:00 PM 50.0 °F - 26.6 °F 40% 30.18 in - SSE 4.6 mph - N/A   Clear